カタログに戻る

STARLINK-35757

運用中通信VLEO
NORAD 66270·PAYLOAD·🇺🇸 United States

打ち上げ Oct 31, 2025 から Vandenberg Space Force Base

Loading…

次のパス (今後24時間)

TLE

最新Source: CelesTrak SupGP

元期: Sep 14, 2026, 22:32 UTC

1 66270C 25247F   26257.93937500  .00000037  00000+0  10859-5 0  2573
2 66270  53.1604  27.9832 0001234  82.2166 180.4168 15.34375804    17

AllMySatでSTARLINK-35757をリアルタイム追跡

Download on the App Store